Weather History for VILK - October, 2013

Change the Weather History Date:

Thursday, October 24, 2013

  Actual Average Record
Temperature  
Mean Temperature 76 °F -  
Max Temperature 88 °F 79 °F - ()
Min Temperature 65 °F 60 °F - ()
Cooling Degree Days 12    
Growing Degree Days 26 (Base 50)    
Moisture  
Dew Point 67 °F    
Average Humidity 68    
Maximum Humidity 88    
Minimum Humidity 44    
Precipitation  
Precipitation 0.00 in - - ()
Sea Level Pressure  
Sea Level Pressure 29.90 in    
Wind  
Wind Speed 2 mph ()    
Max Wind Speed 7 mph    
Max Gust Speed -    
Visibility 2.3 miles    
Events      
T = Trace of Precipitation, MM = Missing Value Source: Averaged Metar Reports

Daily Weather History Graph

Daily Weather History Graph

Search for Another Location

Airport or City:

Trip Planner

Search our weather history database for the weather conditions in past years. The results will help you decide how hot, cold, wet, or windy it might be!

Date:

Astronomy

Oct. 24, 2013 Rise Set
Actual Time 6:10 AM IST 5:30 PM IST
Civil Twilight 5:47 AM IST 5:53 PM IST
Nautical Twilight 5:20 AM IST 6:20 PM IST
Astronomical Twilight 4:53 AM IST 6:47 PM IST
Moon 9:40 PM IST (10/24) 10:38 AM IST (10/24)
Length of Visible Light 12h 06m
Length of Day
11h 19m
Waning Gibbous, 75% of the Moon is Illuminated
Oct 24
Waning Gibbous
Oct 27
Last Quarter
Nov 3
New
Nov 10
First Quarter
Nov 17
Full

Hourly Weather History & Observations

Time (IST) Temp. Heat Index Dew Point Humidity Pressure Visibility Wind Dir Wind Speed Gust Speed Precip Events Conditions
12:00 AM 73.4 °F - 66.2 °F 78% 29.92 in 1.9 mi East 2.3 mph - N/A   Scattered Clouds
1:00 AM 71.6 °F - 66.2 °F 83% 29.92 in 1.9 mi Variable 1.2 mph - N/A   Partly Cloudy
2:00 AM 71.6 °F - 66.2 °F 83% 29.92 in 1.9 mi Variable 1.2 mph - N/A   Partly Cloudy
2:30 AM 71 °F - 65 °F 78% 29.93 in 1 mi Calm Calm - -   Mist
3:00 AM 71.6 °F - 66.2 °F 83% 29.92 in 1.9 mi Calm Calm - N/A   Mist
4:00 AM 71.6 °F - 66.2 °F 83% 29.92 in 1.9 mi ESE 3.5 mph - N/A   Mist
5:00 AM 69.8 °F - 66.2 °F 88% 29.89 in 1.9 mi Variable 2.3 mph - N/A   Mist
5:30 AM 70 °F - 65 °F 79% 29.93 in 1 mi 2.3 mph - -   Mist
5:30 AM 69.8 °F - 64.4 °F 83% 29.92 in 1.9 mi Variable 2.3 mph - N/A   Mist
6:00 AM 69.8 °F - 64.4 °F 83% 29.92 in 1.9 mi Variable 2.3 mph - N/A   Mist
6:30 AM 69.8 °F - 64.4 °F 83% 29.92 in 1.9 mi Variable 2.3 mph - N/A   Mist
7:00 AM 69.8 °F - 66.2 °F 88% 29.95 in 1.9 mi Variable 2.3 mph - N/A   Mist
7:30 AM 69.8 °F - 66.2 °F 88% 29.95 in 1.6 mi Variable 2.3 mph - N/A   Mist
8:30 AM 77 °F - 67 °F 64% 29.98 in 1 mi ENE 3.5 mph - -   Mist
8:30 AM 77.0 °F - 66.2 °F 69% 29.98 in 1.6 mi ENE 3.5 mph - N/A   Mist
9:30 AM 82.4 °F 86.3 °F 69.8 °F 66% 29.98 in 1.9 mi East 4.6 mph - N/A   Haze
10:00 AM 84.2 °F 88.4 °F 69.8 °F 62% 29.98 in 2.5 mi East 4.6 mph - N/A   Haze
10:30 AM 84.2 °F 87.3 °F 68.0 °F 58% 29.95 in 2.5 mi East 5.8 mph - N/A   Haze
11:00 AM 84.2 °F 87.3 °F 68.0 °F 58% 29.95 in 2.8 mi East 4.6 mph - N/A   Haze
11:30 AM 86 °F - 67 °F 44% 29.94 in 2 mi ENE 6.9 mph - -   Haze
11:30 AM 86.0 °F 89.4 °F 68.0 °F 55% 29.95 in 2.8 mi ENE 6.9 mph - N/A   Haze
12:30 PM 86.0 °F 88.2 °F 66.2 °F 51% 29.89 in 3.1 mi NNE 5.8 mph - N/A   Haze
1:00 PM 87.8 °F 90.4 °F 66.2 °F 49% 29.89 in 3.1 mi East 5.8 mph - N/A   Haze
1:30 PM 87.8 °F 90.4 °F 66.2 °F 49% 29.86 in 3.1 mi ENE 4.6 mph - N/A   Haze
2:00 PM 87.8 °F 90.4 °F 66.2 °F 49% 29.86 in 3.1 mi ENE 4.6 mph - N/A   Haze
3:00 PM 87.8 °F 90.4 °F 66.2 °F 49% 29.83 in 3.1 mi East 5.8 mph - N/A   Haze
3:30 PM 87.8 °F 90.4 °F 66.2 °F 49% 29.83 in 3.1 mi ENE 5.8 mph - N/A   Haze
4:00 PM 87.8 °F 90.4 °F 66.2 °F 49% 29.83 in 3.1 mi ENE 4.6 mph - N/A   Haze
4:30 PM 86.0 °F 87.3 °F 64.4 °F 48% 29.83 in 3.1 mi ENE 3.5 mph - N/A   Haze
5:00 PM 86.0 °F 87.3 °F 64.4 °F 48% 29.83 in 3.1 mi ENE 3.5 mph - N/A   Haze
5:30 PM 83 °F - 68 °F 53% 29.83 in 2 mi ESE 2.3 mph - -   Haze
5:30 PM 82.4 °F 85.4 °F 68.0 °F 62% 29.83 in 3.1 mi ESE 2.3 mph - N/A   Haze
6:00 PM 82.4 °F 85.4 °F 68.0 °F 62% 29.83 in 3.1 mi East 2.3 mph - N/A   Haze
6:30 PM 82.4 °F 85.4 °F 68.0 °F 62% 29.83 in 3.1 mi Variable 2.3 mph - N/A   Haze
7:00 PM 80.6 °F 83.2 °F 68.0 °F 65% 29.83 in 2.5 mi Variable 2.3 mph - N/A   Haze
7:30 PM 77.0 °F - 68.0 °F 74% 29.86 in 2.5 mi Calm Calm - N/A   Haze
8:00 PM 75.2 °F - 68.0 °F 78% 29.86 in 2.5 mi Calm Calm - N/A   Haze
8:30 PM 74 °F - 68 °F 76% 29.88 in 1 mi Calm Calm - -   Haze
8:30 PM 75.2 °F - 68.0 °F 78% 29.86 in 2.2 mi Calm Calm - N/A   Haze
9:00 PM 73.4 °F - 68.0 °F 83% 29.86 in 2.2 mi Calm Calm - N/A   Haze
10:00 PM 73.4 °F - 68.0 °F 83% 29.89 in 2.2 mi Calm Calm - N/A   Haze
11:00 PM 71.6 °F - 66.2 °F 83% 29.89 in 2.2 mi Calm Calm - N/A   Haze
11:30 PM 72 °F - 68 °F 82% 29.90 in 1 mi Calm Calm - -   Haze